DW1336 Weather Reports


time (UTC)temp
C
wind
direction
speed
KPH
gust
KPH
rain 1hr
cm
rain 24hr
cm
rain mn
cm
humidity
%
barometer
mb
20260505122105 3 333 1.6 8.0 0.18 0.61 0.18 91 1006.6
20260505121104 3 320 0.0 4.8 0.15 0.58 0.15 91 1006.6
20260505120604 3 317 1.6 4.8 0.13 0.56 0.13 91 1006.5
20260505120104 3 317 0.0 4.8 0.13 0.56 0.13 91 1006.5
20260505115604 3 318 1.6 4.8 0.10 0.53 0.10 90 1006.4
20260505115104 3 321 0.0 4.8 0.10 0.53 0.10 90 1006.3
20260505114604 3 342 0.0 4.8 0.08 0.51 0.08 90 1006.2
20260505114104 3 304 1.6 4.8 0.05 0.48 0.05 90 1006.0
20260505113604 3 343 1.6 11.3 0.03 0.46 0.03 89 1006.0
20260505113104 4 324 3.2 11.3 0.03 0.46 0.03 89 1006.1
20260505112604 4 332 4.8 8.0 0.00 0.43 0.00 89 1006.0
20260505112105 4 292 1.6 12.9 0.00 0.43 0.00 88 1005.9
20260505111604 4 308 4.8 12.9 0.00 0.43 0.00 88 1005.8
20260505111104 5 346 1.6 9.7 0.00 0.43 0.00 88 1005.7
20260505110604 5 310 3.2 8.0 0.00 0.43 0.00 89 1005.6
20260505110104 5 306 3.2 9.7 0.00 0.43 0.00 88 1005.5
20260505102104 5 325 1.6 9.7 0.00 0.43 0.00 90 1004.6
20260505101604 5 326 3.2 9.7 0.00 0.43 0.00 90 1004.2
20260505101104 5 351 3.2 9.7 0.00 0.43 0.00 90 1003.8
20260505100604 6 345 3.2 9.7 0.00 0.43 0.00 90 1003.6
20260505095604 6 331 1.6 4.8 0.00 0.43 0.00 89 1003.8
20260505095104 6 335 1.6 4.8 0.00 0.43 0.00 89 1003.9
20260505094604 6 322 1.6 16.1 0.00 0.43 0.00 89 1003.7
20260505094104 6 334 3.2 16.1 0.00 0.43 0.00 89 1003.7
20260505093605 6 340 3.2 16.1 0.00 0.43 0.00 89 1003.7
20260505093104 7 296 1.6 9.7 0.00 0.43 0.00 90 1003.7
20260505092105 8 331 1.6 9.7 0.00 0.43 0.00 92 1003.5
20260505091604 8 321 0.0 1.6 0.00 0.43 0.00 92 1003.5
20260505091104 8 318 0.0 1.6 0.00 0.43 0.00 92 1003.4
20260505090604 8 317 0.0 3.2 0.00 0.43 0.00 92 1003.4
20260505090105 8 317 0.0 3.2 0.00 0.43 0.00 92 1003.4
20260505085604 8 322 0.0 4.8 0.00 0.43 0.00 92 1003.3
20260505085104 8 323 0.0 4.8 0.00 0.43 0.00 91 1003.3
20260505084604 8 315 0.0 3.2 0.00 0.43 0.00 91 1003.4
20260505083604 8 303 0.0 1.6 0.00 0.43 0.00 91 1003.4
20260505083104 8 226 0.0 0.0 0.00 0.43 0.00 91 1003.3
20260505082605 8 226 0.0 0.0 0.00 0.43 0.00 91 1003.2
20260505082104 8 226 0.0 0.0 0.00 0.43 0.00 91 1003.3
20260505081104 8 226 0.0 0.0 0.00 0.43 0.00 91 1003.3
20260505080604 8 226 0.0 3.2 0.00 0.43 0.00 91 1003.4
20260505080104 8 226 0.0 3.2 0.00 0.43 0.00 91 1003.3
20260505075604 8 226 0.0 1.6 0.00 0.43 0.00 91 1003.2
20260505075104 8 189 0.0 3.2 0.00 0.43 0.00 91 1003.2
20260505074604 8 180 0.0 3.2 0.00 0.43 0.00 91 1003.3
20260505074105 8 223 0.0 3.2 0.00 0.43 0.00 91 1003.4
20260505073605 8 198 0.0 3.2 0.00 0.43 0.00 91 1003.4
20260505073105 8 201 0.0 3.2 0.00 0.43 0.00 91 1003.6
20260505072604 8 214 0.0 3.2 0.00 0.43 0.00 91 1003.8
20260505072104 8 221 0.0 3.2 0.00 0.43 0.00 91 1003.7
20260505071604 8 223 0.0 3.2 0.00 0.43 0.00 91 1003.8
20260505071104 8 192 0.0 3.2 0.00 0.43 0.00 91 1003.7
20260505070104 8 199 0.0 3.2 0.00 0.43 0.00 91 1003.9
20260505065104 8 155 0.0 0.0 0.00 0.43 0.00 91 1003.8
20260505064604 8 155 0.0 0.0 0.00 0.43 0.00 91 1004.0
20260505064104 8 155 0.0 0.0 0.00 0.43 0.00 91 1003.9
20260505063604 8 155 0.0 0.0 0.00 0.43 0.00 90 1004.0
20260505062604 8 147 0.0 3.2 0.00 0.43 0.00 90 1004.1
20260505062104 8 232 0.0 0.0 0.00 0.43 0.00 90 1004.0
20260505061604 8 232 0.0 0.0 0.00 0.43 0.00 90 1004.0
20260505061104 8 232 0.0 1.6 0.00 0.43 0.00 90 1004.0
20260505060604 8 232 0.0 1.6 0.00 0.43 0.00 90 1004.1
20260505060104 8 279 0.0 1.6 0.00 0.43 0.00 90 1004.2
20260505055104 8 281 0.0 0.0 0.00 0.43 0.43 90 1004.3
20260505054604 8 281 0.0 0.0 0.00 0.43 0.43 89 1004.4
20260505054104 8 281 0.0 0.0 0.00 0.43 0.43 89 1004.5
20260505053604 8 281 0.0 0.0 0.03 0.43 0.43 89 1004.1
20260505052604 8 281 0.0 0.0 0.03 0.43 0.43 88 1004.2
20260505052104 8 281 0.0 0.0 0.03 0.43 0.43 88 1004.2
20260505051604 8 281 0.0 0.0 0.05 0.43 0.43 88 1004.1
20260505051104 8 281 0.0 0.0 0.05 0.43 0.43 88 1004.3
20260505050604 8 281 0.0 0.0 0.08 0.43 0.43 88 1004.5
20260505050104 8 281 0.0 0.0 0.10 0.43 0.43 87 1004.5
20260505041604 8 281 0.0 3.2 0.36 0.38 0.38 85 1004.5
20260505041104 8 286 0.0 3.2 0.36 0.38 0.38 85 1004.6
20260505040604 8 284 0.0 3.2 0.33 0.36 0.36 85 1004.7
20260505040105 9 332 0.0 3.2 0.30 0.33 0.33 85 1004.4
20260505035104 9 344 0.0 3.2 0.28 0.30 0.30 84 1004.3
20260505034605 9 267 0.0 3.2 0.25 0.28 0.28 83 1004.3
20260505034105 9 298 0.0 3.2 0.25 0.28 0.28 82 1004.3
20260505033604 10 325 0.0 3.2 0.23 0.25 0.25 79 1004.2
20260505033104 10 339 0.0 3.2 0.18 0.20 0.20 78 1004.3
20260505031604 11 311 0.0 3.2 0.00 0.03 0.03 68 1003.9
20260505031104 12 327 0.0 3.2 0.00 0.03 0.03 66 1003.7
20260505030604 12 358 1.6 3.2 0.00 0.03 0.03 66 1003.6
20260505030104 12 255 0.0 3.2 0.00 0.03 0.03 64 1003.2
20260505025604 12 235 0.0 1.6 0.00 0.03 0.03 63 1002.9
20260505025104 12 235 0.0 3.2 0.00 0.03 0.03 63 1002.7
20260505024604 12 235 0.0 3.2 0.00 0.03 0.03 64 1002.7
20260505023604 12 234 0.0 4.8 0.00 0.03 0.03 64 1002.5
20260505023104 12 233 0.0 4.8 0.00 0.03 0.03 65 1002.4
20260505022604 11 258 0.0 1.6 0.00 0.03 0.03 66 1002.3
20260505021604 11 331 0.0 0.0 0.00 0.03 0.03 65 1002.2
20260505021105 11 331 0.0 0.0 0.00 0.03 0.03 64 1002.0
20260505020604 12 331 0.0 0.0 0.00 0.03 0.03 64 1002.0
20260505020105 12 331 0.0 0.0 0.00 0.03 0.03 64 1002.0
20260505015604 12 331 0.0 0.0 0.00 0.03 0.03 64 1002.0
20260505015105 12 331 0.0 0.0 0.03 0.03 0.03 63 1001.9
20260505014604 12 331 0.0 0.0 0.03 0.03 0.03 63 1002.0
20260505014104 12 331 0.0 3.2 0.03 0.03 0.03 62 1001.7
20260505013604 12 331 0.0 3.2 0.03 0.03 0.03 62 1001.5
20260505013104 12 331 0.0 0.0 0.03 0.03 0.03 63 1001.7
20260505012604 12 331 0.0 3.2 0.03 0.03 0.03 62 1001.9
20260505011604 12 331 0.0 3.2 0.03 0.03 0.03 63 1001.9
20260505011104 12 331 0.0 1.6 0.03 0.03 0.03 65 1001.8
20260505010604 12 331 0.0 3.2 0.03 0.03 0.03 64 1001.7
20260505010104 12 340 0.0 3.2 0.03 0.03 0.03 65 1001.5
20260505005605 12 329 0.0 3.2 0.03 0.03 0.03 64 1001.6
20260505004604 13 311 0.0 4.8 0.00 0.00 0.00 61 1001.8
20260505004104 13 326 0.0 4.8 0.00 0.00 0.00 59 1001.7
20260505003604 13 258 1.6 4.8 0.00 0.00 0.00 56 1001.7
20260505002604 15 312 3.2 12.9 0.00 0.00 0.00 50 1001.5
20260505002104 15 288 1.6 4.8 0.00 0.00 0.00 45 1001.6
20260505001104 15 284 1.6 4.8 0.00 0.00 0.00 43 1001.4
20260505000105 15 256 0.0 4.8 0.00 0.00 0.00 43 1001.1
20260504235604 15 325 0.0 4.8 0.00 0.00 0.00 42 1001.0
20260504235104 16 262 0.0 3.2 0.00 0.00 0.00 42 1000.8
20260504234604 16 301 0.0 9.7 0.00 0.00 0.00 42 1000.6
20260504234104 16 317 1.6 9.7 0.00 0.00 0.00 41 1000.3
20260504233604 16 346 3.2 14.5 0.00 0.00 0.00 41 1000.2
20260504233104 16 326 3.2 14.5 0.00 0.00 0.00 40 1000.1
20260504232604 16 331 3.2 9.7 0.00 0.00 0.00 39 1000.0
20260504232104 16 309 1.6 9.7 0.00 0.00 0.00 37 1000.0
20260504231604 16 328 1.6 8.0 0.00 0.00 0.00 37 999.9
20260504231104 17 327 3.2 9.7 0.00 0.00 0.00 36 999.9
20260504230604 17 328 3.2 9.7 0.00 0.00 0.00 36 999.7
20260504230104 17 328 3.2 8.0 0.00 0.00 0.00 36 999.5
20260504225604 17 338 3.2 11.3 0.00 0.00 0.00 36 999.3
20260504225104 17 330 3.2 11.3 0.00 0.00 0.00 36 999.1
20260504224604 17 317 3.2 11.3 0.00 0.00 0.00 35 999.1
20260504223604 17 342 3.2 9.7 0.00 0.00 0.00 34 999.4
20260504223104 17 327 1.6 9.7 0.00 0.00 0.00 34 999.3
20260504222605 17 323 3.2 16.1 0.00 0.00 0.00 34 999.3
20260504222104 18 334 6.4 16.1 0.00 0.00 0.00 33 999.3
20260504221604 18 316 4.8 16.1 0.00 0.00 0.00 31 999.2
20260504221103 20 351 8.0 14.5 0.00 0.00 0.00 28 998.8
20260504220604 20 19 1.6 9.7 0.00 0.00 0.00 25 998.6
20260504215604 20 26 1.6 8.0 0.00 0.00 0.00 26 998.3
20260504215104 20 349 1.6 11.3 0.00 0.00 0.00 25 998.5
20260504214604 21 7 1.6 11.3 0.00 0.00 0.00 24 998.5
20260504213604 21 318 1.6 4.8 0.00 0.00 0.00 25 998.6
20260504213104 22 303 1.6 8.0 0.00 0.00 0.00 25 998.6
20260504212604 22 309 1.6 8.0 0.00 0.00 0.00 25 998.6
20260504212104 22 322 1.6 8.0 0.00 0.00 0.00 25 998.7
20260504211604 22 322 1.6 4.8 0.00 0.00 0.00 26 998.9
20260504211104 22 231 1.6 4.8 0.00 0.00 0.00 26 998.9
20260504210604 22 310 0.0 4.8 0.00 0.00 0.00 27 999.1
20260504205104 22 332 1.6 9.7 0.00 0.00 0.00 26 999.2
20260504204604 21 325 3.2 14.5 0.00 0.00 0.00 26 999.3
20260504204104 21 338 4.8 14.5 0.00 0.00 0.00 26 999.3
20260504203604 21 334 1.6 11.3 0.00 0.00 0.00 26 999.4
20260504203104 21 302 3.2 12.9 0.00 0.00 0.00 28 999.6
20260504202604 21 321 3.2 12.9 0.00 0.00 0.00 28 999.6
20260504202105 21 344 3.2 12.9 0.00 0.00 0.00 26 999.7
20260504201605 21 11 3.2 19.3 0.00 0.00 0.00 27 999.7
20260504201104 21 335 3.2 19.3 0.00 0.00 0.00 26 999.7
20260504200604 22 319 3.2 12.9 0.00 0.00 0.00 27 999.6
20260504200104 22 327 3.2 14.5 0.00 0.00 0.00 25 999.7
20260504195604 22 333 3.2 14.5 0.00 0.00 0.00 28 999.7
20260504195104 21 325 4.8 12.9 0.00 0.00 0.00 25 999.7
20260504194604 22 354 3.2 12.9 0.00 0.00 0.00 25 999.8
20260504194104 21 307 3.2 14.5 0.00 0.00 0.00 27 999.6
20260504193605 21 333 6.4 14.5 0.00 0.00 0.00 26 999.5
20260504193104 21 338 4.8 14.5 0.00 0.00 0.00 26 999.6
20260504192604 21 329 3.2 9.7 0.00 0.00 0.00 29 999.7
20260504192104 21 348 3.2 12.9 0.00 0.00 0.00 28 999.7
20260504191604 20 10 0.0 12.9 0.00 0.00 0.00 31 999.7
20260504191104 20 331 6.4 16.1 0.00 0.00 0.00 30 999.8
20260504190105 19 300 1.6 14.5 0.00 0.00 0.00 34 999.6
20260504185605 18 332 4.8 14.5 0.00 0.00 0.00 33 999.7
20260504185104 17 316 1.6 14.5 0.00 0.00 0.00 34 999.8
20260504184605 17 327 4.8 14.5 0.00 0.00 0.00 34 999.8
20260504184104 17 322 0.0 9.7 0.00 0.00 0.00 37 999.8
20260504183604 17 333 1.6 9.7 0.00 0.00 0.00 38 1000.0
20260504183104 17 321 1.6 8.0 0.00 0.00 0.00 36 1000.1
20260504182605 18 335 3.2 8.0 0.00 0.00 0.00 29 1000.1
20260504182104 18 340 1.6 4.8 0.00 0.00 0.00 33 1000.1
20260504181604 18 342 1.6 4.8 0.00 0.00 0.00 32 1000.0
20260504181105 18 26 3.2 8.0 0.00 0.00 0.00 26 1000.0
20260504180605 19 12 3.2 8.0 0.00 0.00 0.00 26 999.9
20260504180104 19 331 3.2 8.0 0.00 0.00 0.00 25 999.9
20260504175604 20 86 3.2 4.8 0.00 0.00 0.00 25 999.9
20260504175104 20 22 0.0 4.8 0.00 0.00 0.00 26 999.9
20260504174604 20 357 1.6 4.8 0.00 0.00 0.00 24 999.8
20260504174104 20 337 1.6 9.7 0.00 0.00 0.00 27 999.8
20260504173604 21 8 3.2 9.7 0.00 0.00 0.00 25 999.8
20260504173104 21 0 0.0 4.8 0.00 0.00 0.00 23 999.8
20260504172604 21 36 3.2 8.0 0.00 0.00 0.00 22 999.8
20260504172104 22 74 3.2 11.3 0.00 0.00 0.00 21 999.8
20260504171604 22 78 3.2 11.3 0.00 0.00 0.00 22 999.9
20260504171104 22 115 3.2 8.0 0.00 0.00 0.00 21 1000.0
20260504170604 22 58 1.6 12.9 0.00 0.00 0.00 23 1000.1
20260504170104 22 91 3.2 12.9 0.00 0.00 0.00 22 1000.1
20260504160104 21 11 0.0 3.2 0.00 0.00 0.00 24 1000.9
20260504151104 15 232 0.0 3.2 0.00 0.00 0.00 34 1001.7
20260504150604 15 224 0.0 3.2 0.00 0.00 0.00 34 1001.7
20260504150104 15 157 0.0 3.2 0.00 0.00 0.00 34 1001.7
20260504141104 12 150 0.0 1.6 0.00 0.00 0.00 43 1001.8
20260504140605 11 167 0.0 3.2 0.00 0.00 0.00 44 1001.7
20260504140104 11 224 0.0 3.2 0.00 0.00 0.00 49 1001.8
20260504130604 9 209 0.0 0.0 0.00 0.00 0.00 51 1001.5
20260504130104 9 209 0.0 0.0 0.00 0.00 0.00 51 1001.5